TimeEDT,TemperatureF,Dew PointF,Humidity,Sea Level PressureIn,VisibilityMPH,Wind Direction,Wind SpeedMPH,Gust SpeedMPH,PrecipitationIn,Events,Conditions,WindDirDegrees,DateUTC
12:27 AM,80.6,69.8,70,29.92,10.0,SSW,9.2,-,N/A,Thunderstorm,Mostly Cloudy,210,2013-06-26 04:27:00
12:53 AM,80.1,70.0,71,29.88,9.0,SW,9.2,-,N/A,Thunderstorm,Mostly Cloudy,220,2013-06-26 04:53:00
1:14 AM,80.6,71.6,74,29.90,9.0,SW,10.4,-,N/A,,Mostly Cloudy,230,2013-06-26 05:14:00
1:41 AM,78.8,71.6,78,29.90,9.0,SW,9.2,-,N/A,Thunderstorm,Clear,230,2013-06-26 05:41:00
1:53 AM,79.0,71.1,77,29.88,9.0,West,9.2,-,N/A,Thunderstorm,Scattered Clouds,280,2013-06-26 05:53:00
2:20 AM,71.6,64.4,78,29.92,10.0,North,18.4,25.3,N/A,Thunderstorm,Mostly Cloudy,350,2013-06-26 06:20:00
2:41 AM,69.8,64.4,83,29.93,10.0,North,10.4,21.9,N/A,Thunderstorm,Overcast,10,2013-06-26 06:41:00
2:53 AM,69.1,66.0,90,29.89,8.0,North,9.2,-,0.02,Rain-Thunderstorm,Light Thunderstorms and Rain,360,2013-06-26 06:53:00
3:08 AM,68.0,66.2,94,29.96,1.5,NW,6.9,-,0.21,Rain-Thunderstorm,Heavy Thunderstorms and Rain,310,2013-06-26 07:08:00
3:13 AM,68.0,66.2,94,29.95,0.8,ESE,3.5,-,0.30,Rain-Thunderstorm,Heavy Thunderstorms and Rain,120,2013-06-26 07:13:00
3:18 AM,68.0,66.2,94,29.93,1.0,NE,5.8,-,0.39,Rain-Thunderstorm,Heavy Thunderstorms and Rain,40,2013-06-26 07:18:00
3:25 AM,66.2,66.2,100,29.91,3.0,NE,10.4,-,0.39,Rain-Thunderstorm,Light Thunderstorms and Rain,40,2013-06-26 07:25:00
3:42 AM,66.2,66.2,100,29.91,10.0,East,4.6,-,0.39,,Mostly Cloudy,80,2013-06-26 07:42:00
3:49 AM,66.2,66.2,100,29.90,10.0,ESE,4.6,-,0.39,,Scattered Clouds,110,2013-06-26 07:49:00
3:53 AM,66.9,66.0,97,29.88,10.0,East,5.8,-,0.39,,Scattered Clouds,100,2013-06-26 07:53:00
4:53 AM,68.0,66.9,96,29.93,1.2,WSW,8.1,-,0.21,Rain,Heavy Rain,250,2013-06-26 08:53:00
5:06 AM,68.0,66.2,94,29.94,3.0,South,3.5,-,0.05,Rain,Light Rain,170,2013-06-26 09:06:00
5:53 AM,68.0,66.0,93,29.91,10.0,South,6.9,-,0.06,,Overcast,170,2013-06-26 09:53:00
6:53 AM,68.0,66.9,96,29.91,8.0,SSW,4.6,-,0.00,,Mostly Cloudy,210,2013-06-26 10:53:00
7:32 AM,69.8,66.2,88,29.91,10.0,SSW,4.6,-,N/A,,Scattered Clouds,210,2013-06-26 11:32:00
7:53 AM,70.0,66.9,90,29.88,10.0,Calm,Calm,-,N/A,,Mostly Cloudy,0,2013-06-26 11:53:00
8:53 AM,70.0,68.0,93,29.90,10.0,WNW,5.8,-,N/A,,Overcast,290,2013-06-26 12:53:00
9:53 AM,73.9,68.0,82,29.91,10.0,SW,8.1,-,N/A,,Mostly Cloudy,220,2013-06-26 13:53:00
10:53 AM,78.1,69.1,74,29.90,10.0,SW,4.6,-,N/A,,Scattered Clouds,220,2013-06-26 14:53:00
11:53 AM,80.1,68.0,67,29.91,10.0,West,8.1,-,N/A,,Scattered Clouds,260,2013-06-26 15:53:00
12:53 PM,82.9,68.0,60,29.90,10.0,WSW,10.4,-,N/A,,Scattered Clouds,240,2013-06-26 16:53:00
1:53 PM,84.0,68.0,58,29.88,10.0,SSW,9.2,-,N/A,,Mostly Cloudy,210,2013-06-26 17:53:00
2:53 PM,84.9,69.1,59,29.86,10.0,SSW,10.4,-,0.00,,Mostly Cloudy,200,2013-06-26 18:53:00
3:53 PM,84.9,69.1,59,29.83,10.0,SW,8.1,-,N/A,,Scattered Clouds,230,2013-06-26 19:53:00
4:53 PM,82.9,69.1,63,29.81,10.0,South,13.8,-,N/A,,Mostly Cloudy,180,2013-06-26 20:53:00
5:53 PM,82.9,69.1,63,29.81,10.0,SW,13.8,20.7,N/A,,Scattered Clouds,230,2013-06-26 21:53:00
6:30 PM,69.8,66.2,88,29.82,2.5,SW,4.6,-,0.09,Rain,Rain,230,2013-06-26 22:30:00
6:38 PM,71.6,66.2,83,29.81,10.0,South,4.6,-,0.09,Rain,Light Rain,190,2013-06-26 22:38:00
6:53 PM,72.0,66.0,81,29.80,10.0,South,5.8,-,0.09,Rain,Light Rain,190,2013-06-26 22:53:00
7:53 PM,72.0,68.0,87,29.80,10.0,South,8.1,-,0.00,,Mostly Cloudy,170,2013-06-26 23:53:00
8:53 PM,71.1,68.0,90,29.81,10.0,South,6.9,-,0.01,,Clear,190,2013-06-27 00:53:00
9:53 PM,71.1,66.9,87,29.80,10.0,South,6.9,-,N/A,,Partly Cloudy,180,2013-06-27 01:53:00
10:34 PM,71.6,68.0,88,29.81,10.0,SE,5.8,-,N/A,,Partly Cloudy,140,2013-06-27 02:34:00
10:53 PM,70.0,68.0,93,29.80,10.0,SSE,4.6,-,N/A,,Partly Cloudy,150,2013-06-27 02:53:00
11:53 PM,70.0,66.9,90,29.80,10.0,SSE,8.1,-,0.00,Rain,Light Rain,150,2013-06-27 03:53:00